This is the latest recevied weather packets stored in our database for station/object WW3TRG. If no packets are shown the sender has not sent any weather packets the latest 10 day(s).
| Time | Temp. | Humidity | Pressure | Rain* | Wind** | Luminosity | Snow |
|---|---|---|---|---|---|---|---|
| 1777829634 | 13.33° C | 38% | 1012.1 hPa | 0 mm | - | 305 W/m² | - |
| 1777829330 | 13.89° C | 38% | 1012.2 hPa | 0 mm | - | 274 W/m² | - |
| 1777829028 | 13.89° C | 35% | 1012 hPa | 0 mm | - | 641 W/m² | - |
| 1777828724 | 13.89° C | 34% | 1012 hPa | 0 mm | - | 537 W/m² | - |
| 1777828421 | 13.33° C | 38% | 1012 hPa | 0 mm | - | 465 W/m² | - |
| 1777828118 | 13.33° C | 36% | 1012.4 hPa | 0 mm | - | 489 W/m² | - |
| 1777827814 | 12.78° C | 36% | 1012.3 hPa | 0 mm | - | 739 W/m² | - |
| 1777827511 | 12.22° C | 36% | 1012 hPa | 0 mm | - | 480 W/m² | - |
| 1777827210 | 12.78° C | 36% | 1012.1 hPa | 0 mm | - | 313 W/m² | - |
| 1777826905 | 13.33° C | 36% | 1012.1 hPa | 0 mm | - | 749 W/m² | - |
| 1777826603 | 11.67° C | 38% | 1012.2 hPa | 0 mm | - | 329 W/m² | - |
| 1777826298 | 12.22° C | 38% | 1012.4 hPa | 0 mm | - | 265 W/m² | - |
| 1777825997 | 11.67° C | 38% | 1012.5 hPa | 0 mm | - | 766 W/m² | - |
| 1777825693 | 11.67° C | 38% | 1012.5 hPa | 0 mm | - | 163 W/m² | - |
| 1777825391 | 12.78° C | 36% | 1012.7 hPa | 0 mm | - | 822 W/m² | - |
| 1777825088 | 11.67° C | 40% | 1012.6 hPa | 0 mm | - | 752 W/m² | - |
| 1777824784 | 11.67° C | 45% | 1012.5 hPa | 0 mm | - | 174 W/m² | - |
| 1777824481 | 12.22° C | 45% | 1012.5 hPa | 0 mm | - | 747 W/m² | - |
| 1777824177 | 11.67° C | 42% | 1012.9 hPa | 0 mm | - | 651 W/m² | - |
| 1777823873 | 11.11° C | 44% | 1012.8 hPa | 0 mm | - | 708 W/m² | - |
| 1777823571 | 10.56° C | 43% | 1013.1 hPa | 0 mm | - | 313 W/m² | - |
| 1777823267 | 10.56° C | 43% | 1013.1 hPa | 0 mm | - | 197 W/m² | - |
| 1777822965 | 11.11° C | 43% | 1012.9 hPa | 0 mm | - | 609 W/m² | - |
| 1777822663 | 10.56° C | 43% | 1013 hPa | 0 mm | - | 629 W/m² | - |
| 1777822361 | 10° C | 45% | 1013 hPa | 0 mm | - | 223 W/m² | - |
* Rain latest hour (hover to see other rain measurements)
** Current wind speed in m/s (hover to see current wind gust speed)